Weather History for Bennington, VT

Change the Weather History Date:

Sunday, February 17, 2013

  Actual Average Record
Temperature  
Mean Temperature 18 °F 26 °F  
Max Temperature 24 °F 35 °F 20 °F (2014)
Min Temperature 11 °F 16 °F -1 °F (2014)
Degree Days  
Heating Degree Days 47 40  
Month to date heating degree days 709 701  
Since 1 July heating degree days 4397 4832  
Cooling Degree Days 0 0  
Month to date cooling degree days 0 0  
Year to date cooling degree days 0 0  
Moisture  
Dew Point 0 °F    
Average Humidity 46    
Maximum Humidity 59    
Minimum Humidity 33    
Precipitation  
Precipitation 0.00 in 0.08 in 0.00 in (2014)
Month to date precipitation 0.41 1.24  
Year to date precipitation 1.86 3.99  
Sea Level Pressure  
Sea Level Pressure 29.73 in    
Wind  
Wind Speed 12 mph (NW)    
Max Wind Speed 23 mph    
Max Gust Speed 36 mph    
Visibility 10 miles    
Events      
T = Trace of Precipitation, MM = Missing Value Source: NWS Daily Summary

Daily Weather History Graph

Daily Weather History Graph

Search for Another Location

Airport:

Trip Planner

Search our weather history database for the weather conditions in past years. The results will help you decide how hot, cold, wet, or windy it might be!

Date:

Astronomy

Feb. 17, 2013 Rise Set
Actual Time 6:47 AM EST 5:27 PM EST
Civil Twilight 6:18 AM EST 5:56 PM EST
Nautical Twilight 5:45 AM EST 6:29 PM EST
Astronomical Twilight 5:12 AM EST 7:02 PM EST
Moon 10:26 AM EST (2/17) 12:31 AM EST (2/17)
Length of Visible Light 11h 38m
Length of Day
10h 40m
Waxing Crescent, 49% of the Moon is Illuminated
Feb 17
Waxing Crescent
Feb 17
First Quarter
Feb 25
Full
Mar 4
Last Quarter
Mar 11
New

Hourly Weather History & Observations

Time (EST) Temp. Windchill Dew Point Humidity Pressure Visibility Wind Dir Wind Speed Gust Speed Precip Events Conditions
12:54 AM 21.0 °F 11.4 °F 1.9 °F 44% 29.78 in 10.0 mi NW 8.1 mph - N/A   Overcast
1:54 AM 19.9 °F 8.6 °F 1.9 °F 46% 29.78 in 10.0 mi NNW 10.4 mph - N/A   Overcast
2:54 AM 19.9 °F 9.3 °F 1.0 °F 44% 29.76 in 10.0 mi NNW 9.2 mph - N/A   Overcast
3:54 AM 19.0 °F 7.5 °F 1.0 °F 46% 29.73 in 10.0 mi NNW 10.4 mph - N/A   Overcast
4:54 AM 18.0 °F 6.1 °F 1.9 °F 50% 29.73 in 10.0 mi NNW 10.4 mph 23.0 mph N/A   Overcast
5:54 AM 17.1 °F 5.8 °F 1.9 °F 52% 29.73 in 10.0 mi NNW 9.2 mph 19.6 mph N/A   Mostly Cloudy
6:54 AM 16.0 °F 4.4 °F 3.0 °F 57% 29.71 in 10.0 mi NNW 9.2 mph 19.6 mph N/A   Overcast
7:54 AM 15.1 °F 1.1 °F 1.9 °F 56% 29.70 in 10.0 mi NNW 12.7 mph 19.6 mph N/A   Scattered Clouds
8:54 AM 15.1 °F 1.8 °F 3.0 °F 59% 29.69 in 10.0 mi NNW 11.5 mph 18.4 mph N/A   Mostly Cloudy
9:54 AM 15.1 °F 0.5 °F 3.0 °F 59% 29.68 in 10.0 mi NNW 13.8 mph 25.3 mph N/A   Mostly Cloudy
10:54 AM 16.0 °F 0.6 °F 1.9 °F 54% 29.66 in 10.0 mi North 16.1 mph 26.5 mph N/A   Partly Cloudy
11:54 AM 18.0 °F 4.2 °F 3.0 °F 52% 29.65 in 10.0 mi NW 13.8 mph 18.4 mph N/A   Clear
12:54 PM 19.9 °F 6.7 °F 1.0 °F 44% 29.64 in 10.0 mi NNW 13.8 mph 24.2 mph N/A   Clear
1:54 PM 21.9 °F 11.7 °F 1.0 °F 40% 29.62 in 10.0 mi NNW 9.2 mph 21.9 mph N/A   Clear
2:54 PM 23.0 °F 9.6 °F -2.9 °F 32% 29.63 in 10.0 mi NNW 16.1 mph 27.6 mph N/A   Clear
3:54 PM 21.9 °F 9.8 °F -4.0 °F 32% 29.64 in 10.0 mi NW 12.7 mph 31.1 mph N/A   Clear
4:54 PM 21.0 °F 7.6 °F -2.9 °F 35% 29.67 in 10.0 mi WNW 15.0 mph 24.2 mph N/A   Clear
5:54 PM 19.0 °F 2.7 °F -4.0 °F 36% 29.72 in 10.0 mi WNW 20.7 mph 35.7 mph N/A   Clear
6:54 PM 17.1 °F 3.0 °F -4.0 °F 39% 29.75 in 10.0 mi WNW 13.8 mph 26.5 mph N/A   Clear
7:54 PM 14.0 °F -2.0 °F -2.9 °F 47% 29.79 in 10.0 mi West 16.1 mph 28.8 mph N/A   Clear
8:54 PM 12.0 °F -3.4 °F -4.0 °F 49% 29.82 in 10.0 mi West 13.8 mph 31.1 mph N/A   Clear
9:54 PM 10.9 °F -3.4 °F -2.9 °F 54% 29.84 in 10.0 mi WNW 11.5 mph 24.2 mph N/A   Clear
10:54 PM 10.9 °F -4.1 °F -2.9 °F 54% 29.86 in 10.0 mi WNW 12.7 mph 20.7 mph N/A   Clear
11:54 PM 10.9 °F -0.8 °F -4.0 °F 51% 29.89 in 10.0 mi WNW 8.1 mph 17.3 mph N/A   Clear